When you browse on this site, cookies collect data to enhance your experience and personalize the content and advertising you see.
Visit our Privacy Policy to learn more. By continuing to use the site, you agree to this use of cookies and data.
  • In Österreich
  • Länderverzeichnis
  • Für 7 Tage
  • Wassertemperatur
  • Satellitenkarten
  • Wetterkarte
  • News
  • Widgets
  • user-avatar
    Anmelden

    Stündliche Wetter Absam

    Heute, 14 Dezember, Freitag

    Zeit Temperatur Niederschläge Wind Luftdruck Luftfeuchtigkeit
    00:00 -9°C° 0 mm 2 m/S 686 mmHg 80%
    01:00 -9°C° 0 mm 2 m/S 686 mmHg 76%
    02:00 -9°C° 0 mm 2 m/S 686 mmHg 76%
    03:00 -8°C° 0 mm 1 m/S 686 mmHg 76%
    04:00 -9°C° 0 mm 1 m/S 686 mmHg 76%
    05:00 -9°C° 0 mm 1 m/S 686 mmHg 74%
    06:00 -9°C° 0 mm 1 m/S 686 mmHg 73%
    07:00 -9°C° 0 mm 1 m/S 686 mmHg 71%
    08:00 -7°C° 0 mm 1 m/S 687 mmHg 70%
    09:00 -6°C° 0 mm 1 m/S 687 mmHg 68%
    10:00 -3°C° 0 mm 1 m/S 687 mmHg 66%
    11:00 -2°C° 0 mm 1 m/S 687 mmHg 63%
    12:00 -1°C° 0 mm 1 m/S 687 mmHg 59%
    13:00 +1°C° 0 mm 1 m/S 687 mmHg 56%
    14:00 -1°C° 0 mm 1 m/S 687 mmHg 64%
    15:00 -2°C° 0 mm 1 m/S 687 mmHg 72%
    16:00 -4°C° 0 mm 1 m/S 687 mmHg 80%
    17:00 -6°C° 0 mm 1 m/S 687 mmHg 81%
    18:00 -7°C° 0 mm 1 m/S 688 mmHg 82%
    19:00 -8°C° 0 mm 1 m/S 688 mmHg 83%
    20:00 -8°C° 0 mm 1 m/S 689 mmHg 79%
    21:00 -8°C° 0 mm 1 m/S 689 mmHg 76%
    22:00 -8°C° 0 mm 1 m/S 689 mmHg 73%
    23:00 -8°C° 0 mm 1 m/S 689 mmHg 71%

    Morgen, 15 Dezember, Samstag

    Zeit Temperatur Niederschläge Wind Luftdruck Luftfeuchtigkeit
    00:00 -8°C° 0 mm 1 m/S 690 mmHg 70%
    01:00 -8°C° 0 mm 1 m/S 690 mmHg 68%
    02:00 -8°C° 0 mm 1 m/S 690 mmHg 69%
    03:00 -9°C° 0 mm 1 m/S 690 mmHg 70%
    04:00 -10°C° 0 mm 2 m/S 690 mmHg 72%
    05:00 -10°C° 0 mm 2 m/S 690 mmHg 73%
    06:00 -10°C° 0 mm 2 m/S 691 mmHg 75%
    07:00 -10°C° 0 mm 2 m/S 691 mmHg 77%
    08:00 -7°C° 0 mm 1 m/S 691 mmHg 76%
    09:00 -6°C° 0 mm 1 m/S 691 mmHg 75%
    10:00 -3°C° 0 mm 1 m/S 691 mmHg 75%
    11:00 -2°C° 0 mm 1 m/S 691 mmHg 72%
    12:00 -1°C° 0 mm 1 m/S 691 mmHg 70%
    13:00 0°C° 0 mm 1 m/S 690 mmHg 68%
    14:00 -1°C° 0 mm 1 m/S 690 mmHg 72%
    15:00 -2°C° 0 mm 1 m/S 690 mmHg 77%
    16:00 -4°C° 0 mm 1 m/S 690 mmHg 82%
    17:00 -4°C° 0 mm 1 m/S 690 mmHg 79%
    18:00 -6°C° 0 mm 1 m/S 690 mmHg 76%
    19:00 -7°C° 0 mm 1 m/S 690 mmHg 73%
    20:00 -7°C° 0 mm 1 m/S 690 mmHg 68%
    21:00 -8°C° 0 mm 2 m/S 690 mmHg 64%
    22:00 -8°C° 0 mm 2 m/S 690 mmHg 60%
    23:00 -7°C° 0 mm 2 m/S 689 mmHg 57%

    übermorgen, 16 Dezember, Sonntag

    Zeit Temperatur Niederschläge Wind Luftdruck Luftfeuchtigkeit
    00:00 -7°C° 0 mm 2 m/S 689 mmHg 54%
    01:00 -7°C° 0 mm 2 m/S 689 mmHg 52%
    02:00 -6°C° 0 mm 2 m/S 688 mmHg 52%
    03:00 -5°C° 0 mm 2 m/S 688 mmHg 51%
    04:00 -4°C° 0 mm 2 m/S 688 mmHg 51%
    05:00 -3°C° 0.1 mm 2 m/S 688 mmHg 56%
    06:00 -3°C° 0.1 mm 2 m/S 688 mmHg 61%
    07:00 0°C° 0.1 mm 1 m/S 688 mmHg 66%
    08:00 -1°C° 0.5 mm 2 m/S 688 mmHg 70%
    09:00 +1°C° 0.5 mm 2 m/S 688 mmHg 75%
    10:00 +2°C° 0.5 mm 2 m/S 688 mmHg 79%
    11:00 +4°C° 0.2 mm 1 m/S 688 mmHg 80%
    12:00 +5°C° 0.2 mm 1 m/S 688 mmHg 81%
    13:00 +6°C° 0.2 mm 1 m/S 688 mmHg 82%
    14:00 +6°C° 0.2 mm 1 m/S 688 mmHg 84%
    15:00 +5°C° 0.2 mm 1 m/S 688 mmHg 86%
    16:00 +4°C° 0.2 mm 1 m/S 688 mmHg 88%
    17:00 +3°C° 0.6 mm 0 m/S 688 mmHg 90%
    18:00 +3°C° 0.6 mm 0 m/S 688 mmHg 91%
    19:00 +3°C° 0.6 mm 0 m/S 689 mmHg 92%
    20:00 +2°C° 0.6 mm 0 m/S 689 mmHg 93%
    21:00 +3°C° 0.6 mm 1 m/S 689 mmHg 94%
    22:00 +3°C° 0.6 mm 1 m/S 689 mmHg 95%
    23:00 +3°C° 0.2 mm 1 m/S 689 mmHg 94%

    17 Dezember, Montag

    Zeit Temperatur Niederschläge Wind Luftdruck Luftfeuchtigkeit
    00:00 +3°C° 0.2 mm 1 m/S 689 mmHg 93%
    01:00 +3°C° 0.2 mm 1 m/S 688 mmHg 93%
    02:00 +2°C° 0 mm 1 m/S 688 mmHg 92%
    03:00 +2°C° 0 mm 1 m/S 688 mmHg 91%
    04:00 +2°C° 0 mm 1 m/S 688 mmHg 90%
    05:00 +2°C° 0 mm 1 m/S 688 mmHg 90%
    06:00 +2°C° 0 mm 1 m/S 688 mmHg 90%
    07:00 +2°C° 0 mm 1 m/S 688 mmHg 90%
    08:00 +2°C° 0 mm 1 m/S 689 mmHg 91%
    09:00 +2°C° 0 mm 1 m/S 689 mmHg 91%
    10:00 +3°C° 0 mm 1 m/S 690 mmHg 92%
    11:00 +3°C° 0.1 mm 1 m/S 690 mmHg 92%
    12:00 +4°C° 0.1 mm 1 m/S 690 mmHg 92%
    13:00 +3°C° 0.1 mm 2 m/S 690 mmHg 92%
    14:00 +3°C° 0.2 mm 2 m/S 690 mmHg 93%
    15:00 +2°C° 0.2 mm 2 m/S 690 mmHg 94%
    16:00 +2°C° 0.2 mm 2 m/S 691 mmHg 95%
    17:00 +2°C° 0.3 mm 2 m/S 691 mmHg 95%
    18:00 +1°C° 0.3 mm 2 m/S 692 mmHg 95%
    19:00 +1°C° 0.3 mm 2 m/S 692 mmHg 95%
    20:00 +1°C° 0.2 mm 2 m/S 693 mmHg 95%
    21:00 +1°C° 0.2 mm 2 m/S 693 mmHg 95%
    22:00 -1°C° 0.2 mm 2 m/S 694 mmHg 95%
    23:00 -1°C° 0.1 mm 2 m/S 694 mmHg 94%

    18 Dezember, Dienstag

    Zeit Temperatur Niederschläge Wind Luftdruck Luftfeuchtigkeit
    00:00 -1°C° 0.1 mm 2 m/S 695 mmHg 94%
    01:00 -1°C° 0.1 mm 2 m/S 695 mmHg 94%
    02:00 -2°C° 0.1 mm 2 m/S 695 mmHg 93%
    03:00 -2°C° 0.1 mm 2 m/S 695 mmHg 93%
    04:00 0°C° 0.1 mm 1 m/S 695 mmHg 93%
    05:00 -1°C° 0 mm 1 m/S 695 mmHg 92%
    06:00 -2°C° 0 mm 1 m/S 695 mmHg 91%
    07:00 -2°C° 0 mm 1 m/S 695 mmHg 90%
    08:00 -1°C° 0 mm 1 m/S 695 mmHg 87%
    09:00 0°C° 0 mm 1 m/S 695 mmHg 84%
    10:00 +1°C° 0 mm 1 m/S 695 mmHg 81%
    11:00 +3°C° 0 mm 1 m/S 695 mmHg 80%
    12:00 +3°C° 0 mm 2 m/S 694 mmHg 78%
    13:00 +5°C° 0 mm 2 m/S 694 mmHg 77%
    14:00 +4°C° 0 mm 2 m/S 694 mmHg 77%
    15:00 +3°C° 0 mm 2 m/S 693 mmHg 78%
    16:00 +2°C° 0 mm 2 m/S 693 mmHg 78%
    17:00 +1°C° 0 mm 2 m/S 693 mmHg 74%
    18:00 -1°C° 0 mm 2 m/S 693 mmHg 70%
    19:00 -2°C° 0 mm 3 m/S 693 mmHg 66%
    20:00 -2°C° 0 mm 3 m/S 693 mmHg 63%
    21:00 -2°C° 0 mm 3 m/S 693 mmHg 61%
    22:00 -2°C° 0 mm 3 m/S 692 mmHg 59%
    23:00 -2°C° 0 mm 3 m/S 692 mmHg 58%

    19 Dezember, Mittwoch

    Zeit Temperatur Niederschläge Wind Luftdruck Luftfeuchtigkeit
    00:00 -2°C° 0 mm 3 m/S 692 mmHg 58%
    01:00 -2°C° 0 mm 3 m/S 692 mmHg 57%
    02:00 -2°C° 0 mm 3 m/S 692 mmHg 57%
    03:00 -1°C° 0 mm 3 m/S 692 mmHg 57%
    04:00 -1°C° 0 mm 2 m/S 691 mmHg 58%
    05:00 -1°C° 0 mm 2 m/S 691 mmHg 58%
    06:00 -1°C° 0 mm 2 m/S 691 mmHg 57%
    07:00 -1°C° 0 mm 2 m/S 691 mmHg 57%
    08:00 +1°C° 0 mm 2 m/S 691 mmHg 60%
    09:00 +2°C° 0 mm 2 m/S 691 mmHg 62%
    10:00 +3°C° 0 mm 2 m/S 691 mmHg 65%
    11:00 +4°C° 0 mm 2 m/S 691 mmHg 67%
    12:00 +4°C° 0 mm 2 m/S 691 mmHg 70%
    13:00 +5°C° 0 mm 2 m/S 690 mmHg 72%
    14:00 +5°C° 0.1 mm 2 m/S 690 mmHg 74%
    15:00 +4°C° 0.1 mm 2 m/S 690 mmHg 76%
    16:00 +4°C° 0.1 mm 2 m/S 689 mmHg 78%
    17:00 +3°C° 0.2 mm 2 m/S 689 mmHg 80%
    18:00 +3°C° 0.2 mm 2 m/S 689 mmHg 83%
    19:00 +3°C° 0.2 mm 2 m/S 689 mmHg 85%
    20:00 +3°C° 0.6 mm 2 m/S 689 mmHg 87%
    21:00 +2°C° 0.6 mm 2 m/S 689 mmHg 89%
    22:00 +2°C° 0.6 mm 2 m/S 690 mmHg 92%
    23:00 +2°C° 0.7 mm 2 m/S 689 mmHg 92%
    Mehr zeigen